Regional Weather Roundup
Issued by NWS Goodland, KS

Home | Current Version | Previous Version | Graphics & Text | Print | Product List | Glossary On
Versions: 1 2 3 4 5 6 7 8 9 10 11 12 13 14 15 16 17 18 19 20 21 22 23 24 25 26 27 28 29 30 31 32 33 34 35 36 37 38 39 40 41 42 43 44 45 46 47 48 49 50
000
ASUS43 KGLD 201259
RWRGLD

GOODLAND FORECAST AREA HOURLY WEATHER ROUNDUP
NATIONAL WEATHER SERVICE GOODLAND KS
700 AM MDT SAT SEP 20 2014

...OFFICIAL OBSERVATIONS...

CITY           SKY/WX    TMP DP  RH WIND       PRES   REMARKS
GOODLAND KS    CLEAR     62  55  77 NW14      30.03R
HILL CITY KS   CLEAR     68  63  84 W8        29.93R
IMPERIAL NEB   CLEAR     61  53  75 N8        30.05R
MCCOOK NEB     CLEAR     64  60  87 N16       29.97R
AKRON CO       CLEAR     54  51  90 N12       30.14R
BURLINGTON CO  CLEAR     61  52  72 NW9       30.08R
LIMON CO       CLEAR     54  48  80 W6        30.17R
$$

...UNOFFICIAL OBSERVATIONS...

CITY           SKY/WX    TMP DP  RH WIND       PRES   REMARKS
GOVE KS          N/A     66  32  28 MISG        N/A
SHARON SPRINGS   N/A     59  58  95 CALM        N/A
WAKEENEY KS      N/A     65  59  82 MISG        N/A
TRENTON NEB      N/A     63  32  31 N15         N/A
YUMA CO          N/A     58  52  80 N12         N/A
$$


USA.gov is the U.S. government's official web portal to all federal, state and local government web resources and services.